Regional Weather Roundup
Issued by NWS

Home | Current Version | Previous Version | Graphics & Text | Print | Product List | Glossary On
Versions: 1 2 3 4 5 6 7 8 9 10 11 12 13 14 15 16 17 18 19 20 21 22 23 24 25 26 27 28 29 30 31 32 33 34 35 36 37 38 39 40 41 42 43 44 45 46 47 48 49 50
065
ASUS43 KFSD 252310
RWRSD

WEATHER ROUNDUP FOR SOUTH DAKOTA
NATIONAL WEATHER SERVICE SIOUX FALLS SD
600 PM CDT MON SEP 25 2017

NOTE: "FAIR" INDICATES FEW OR NO CLOUDS BELOW 12,000 FEET WITH NO
SIGNIFICANT WEATHER AND/OR OBSTRUCTIONS TO VISIBILITY.


SDZ001>005-009-010-012>017-260000-
NORTHWEST AND NORTH CENTRAL SOUTH DAKOTA

CITY           SKY/WX    TMP DP  RH WIND       PRES   REMARKS
BUFFALO          N/A     50  40  68 SE5       30.04S
FAITH            N/A     52  41  66 NE3       30.11R
MOBRIDGE       CLOUDY    54  45  71 N5        30.09S
$$

SDZ012>016-024>037-041>051-057-063-072>074-260000-
SOUTHWEST AND SOUTH CENTRAL SOUTH DAKOTA

CITY           SKY/WX    TMP DP  RH WIND       PRES   REMARKS
RAPID CTY ARPT CLOUDY    52  43  71 E8        30.09S
PIERRE         CLOUDY    53  43  68 N8        30.09R
CUSTER         CLOUDY    46  36  68 SW3       30.09S
ELLSWORTH AFB  CLOUDY    52  43  73 E8        30.08F
PHILIP         CLOUDY    55  43  63 N12       30.10S
PINE RIDGE     CLOUDY    52  43  71 N5        30.10S
SPEARFISH      PTSUNNY   48  45  87 SE9       30.10S
WINNER         CLOUDY    53  47  79 N9        30.09R
$$

SDZ004>011-016>023-039-040-260000-
NORTHEAST SOUTH DAKOTA

CITY           SKY/WX    TMP DP  RH WIND       PRES   REMARKS
ABERDEEN       CLOUDY    52  46  80 N10       30.09R
WATERTOWN      CLOUDY    50  48  93 N13       30.03S
BROOKINGS      LGT RAIN  52  49  89 N10       30.01F
SISSETON         N/A     52  48  86 N12       30.07R
$$

SDZ017-020-022-023-036>040-048>070-260000-
SOUTHEAST SOUTH DAKOTA

CITY           SKY/WX    TMP DP  RH WIND       PRES   REMARKS
SIOUX FALLS    CLOUDY    55  53  93 N9        30.00S
HURON          CLOUDY    53  48  83 N12       30.06S
CHAMBERLAIN    CLOUDY    55  49  81 N6        30.06F
MITCHELL       LGT RAIN  52  51  97 N12       30.05S
YANKTON        CLOUDY    53  52  96 N12       30.01S
$$

ABBREVIATIONS USED IN REMARKS
   TC - TEMPERATURE IN CELSIUS
  WCI - WIND CHILL INDEX
   HX - HEAT INDEX
  VSB - VISIBILITY





USA.gov is the U.S. government's official web portal to all federal, state and local government web resources and services.